DW8454 Weather Reports


Display with metric or nautical units.
time (UTC)temp
F
wind
direction
speed
MPH
gust
MPH
rain 1hr
in
rain 24hr
in
rain mn
in
humidity
%
barometer
mb
20260504050350 51 213 0.0 0.0 0.00 0.00 0.00 62 1009.9
20260504045355 51 202 0.0 0.0 0.00 0.00 0.00 62 1009.9
20260504043252 51 205 0.0 0.0 0.00 0.00 0.00 63 1010.1
20260504042249 51 177 0.0 0.0 0.00 0.00 0.00 64 1010.2
20260504041226 51 192 0.0 0.0 0.00 0.00 0.00 64 1010.3
20260504040225 51 219 0.0 0.0 0.00 0.00 0.00 64 1010.4
20260504035244 51 184 0.0 0.0 0.00 0.00 0.00 63 1010.5
20260504034218 52 178 0.0 0.0 0.00 0.00 0.00 63 1010.6
20260504033154 52 182 0.0 0.0 0.00 0.00 0.00 62 1010.6
20260504032122 52 155 0.0 0.0 0.00 0.00 0.00 61 1010.8
20260504031103 52 185 0.0 0.0 0.00 0.00 0.00 61 1010.9
20260504030128 53 198 0.0 0.0 0.00 0.00 0.00 60 1011.1
20260504025100 53 217 0.0 0.0 0.00 0.00 0.00 60 1011.1
20260504024036 53 181 0.0 0.0 0.00 0.00 0.00 60 1011.3
20260504023018 53 219 0.0 0.0 0.00 0.00 0.00 60 1011.2
20260504022005 53 194 0.0 0.0 0.00 0.00 0.00 60 1011.2
20260504020939 53 240 0.0 0.0 0.00 0.00 0.00 60 1011.3
20260504013609 53 256 0.0 0.0 0.00 0.00 0.00 58 1011.4
20260504012551 54 254 0.0 0.0 0.00 0.00 0.00 56 1011.4
20260504011521 55 247 0.0 0.0 0.00 0.00 0.00 53 1011.2
20260504010505 55 257 0.0 0.0 0.00 0.00 0.00 49 1011.0
20260504005440 55 147 0.0 0.0 0.00 0.00 0.00 48 1010.9
20260504004406 56 189 0.0 0.0 0.00 0.00 0.00 47 1010.7
20260504003354 56 252 0.0 0.0 0.00 0.00 0.00 46 1010.7
20260504002339 57 265 0.0 0.0 0.00 0.00 0.00 45 1010.7
20260504001352 57 186 0.0 0.0 0.00 0.00 0.00 45 1010.6
20260504000350 58 247 0.0 0.0 0.00 0.00 0.00 44 1010.6
20260503235339 58 249 0.0 0.0 0.00 0.00 0.00 43 1010.6
20260503234320 59 257 0.0 0.0 0.00 0.00 0.00 43 1010.7
20260503233314 59 272 0.0 0.0 0.00 0.00 0.00 43 1010.8
20260503231209 60 251 0.0 0.0 0.00 0.00 0.00 42 1010.9
20260503230212 60 213 0.0 0.0 0.00 0.00 0.00 41 1010.9
20260503224105 61 241 0.0 0.0 0.00 0.00 0.00 42 1010.9
20260503223032 62 265 0.0 0.0 0.00 0.00 0.00 41 1011.1
20260503222036 62 242 0.0 0.0 0.00 0.00 0.00 43 1011.1
20260503221016 61 254 0.0 0.0 0.00 0.00 0.00 41 1011.2
20260503214904 61 269 0.0 0.0 0.00 0.00 0.00 42 1011.2
20260503213905 60 242 0.0 0.0 0.00 0.00 0.00 42 1011.2
20260503212917 60 233 0.0 0.0 0.00 0.00 0.00 42 1011.3
20260503211928 60 284 0.0 0.0 0.00 0.00 0.00 42 1011.3
20260503210907 60 244 0.0 0.0 0.00 0.00 0.00 43 1011.3
20260503205901 60 244 0.0 0.0 0.00 0.00 0.00 42 1011.3
20260503204840 60 259 0.0 0.0 0.00 0.00 0.00 42 1011.4
20260503202715 61 272 0.0 0.0 0.00 0.00 0.00 41 1011.5
20260503200421 61 162 0.0 0.0 0.00 0.00 0.00 42 1011.7
20260503195439 61 230 0.0 0.0 0.00 0.00 0.00 40 1011.9
20260503193315 61 275 0.0 0.0 0.00 0.00 0.00 41 1012.2
20260503191132 61 240 0.0 0.0 0.00 0.00 0.00 42 1012.5
20260503185055 62 242 0.0 0.0 0.00 0.00 0.00 42 1012.9
20260503184047 62 226 0.0 0.0 0.00 0.00 0.00 42 1012.9
20260503183016 61 250 0.0 0.0 0.00 0.00 0.00 42 1013.0
20260503182034 61 247 0.0 0.0 0.00 0.00 0.00 42 1013.2
20260503181049 62 247 0.0 0.0 0.00 0.00 0.00 42 1013.2
20260503180046 61 267 0.0 0.0 0.00 0.00 0.00 44 1013.4
20260503175045 61 225 0.0 0.0 0.00 0.00 0.00 42 1013.6
20260503174102 62 245 0.0 0.0 0.00 0.00 0.00 44 1013.7
20260503173103 61 246 0.0 0.0 0.00 0.00 0.00 44 1013.9
20260503172116 61 290 0.0 0.0 0.00 0.00 0.00 44 1014.0
20260503171113 60 256 0.0 0.0 0.00 0.00 0.00 47 1014.1
20260503150913 56 286 0.0 0.0 0.00 0.00 0.00 50 1015.2
20260503130635 47 244 0.0 0.0 0.00 0.00 0.00 59 1016.0
20260503110504 37 201 0.0 0.0 0.00 0.00 0.00 78 1015.9
20260503080803 37 205 0.0 0.0 0.00 0.00 0.00 81 1015.7